Flag for France Weather past 2 weeks in Nancy, France

Now
63 °F

Clear.


Feels Like: 63 °F
Forecast: 55 / 69 °F
Wind: 6 mph from Northeast

Location: Nancy / Ochey

Current Time: Sep 2, 2014 at 10:04:57 PM

Latest Report: Sep 2, 2014 at 9:00 PM


Visibility: N/A

Pressure: 30.15 "Hg

Humidity: 68%

Dew point: 52 °F

Location of NancyLocation

Historic Weather in Nancy — Graph

°F

Nancy temperature yesterday

Maximum temperature yesterday: 66 °F (at 4:00 PM)
Minimum temperature yesterday: 48 °F (at 5:00 AM)
Average temperature yesterday: 56 °F

Past Weeks' High & Low Weather Summary

 TemperatureHumidityPressure
High73 °F (Aug 28, 3:30 PM)100% (Aug 19, 1:00 AM)30.18 "Hg (Aug 19, 1:00 AM)
Low45 °F (Aug 21, 7:00 AM)40% (Aug 24, 5:30 PM)29.68 "Hg (Aug 26, 2:30 AM)
Average59 °F79%30.03 "Hg
* Reported Aug 18 9:00 PM — Sep 2 9:00 PM, Nancy, Weather by CustomWeather, © 2014

Note: Actual official high and low records may vary slightly from our data, if they occured in-between our weather recording intervals... More about our weather records

Advertising

Nancy weather history for previous 24 hours

 ConditionsComfort  
Time TempWeatherWind HumidityBarometerVisibility
9:00 PM
Sep 2
63 °FClear.6 mph68%30.15 "HgN/A
8:30 PM63 °FClear.6 mph68%30.15 "HgN/A
8:00 PM64 °FClear.5 mph64%30.15 "HgN/A
7:30 PM66 °FClear.5 mph60%30.15 "HgN/A
7:00 PM68 °FClear.7 mph53%30.15 "HgN/A
6:30 PM68 °FClear.8 mph53%30.15 "HgN/A
6:00 PM68 °FClear.8 mph53%30.15 "HgN/A
5:30 PM70 °FPassing clouds.5 mph50%30.15 "HgN/A
5:00 PM70 °FClear.6 mph46%30.15 "HgN/A
4:30 PM68 °FPassing clouds.8 mph53%30.15 "HgN/A
4:00 PM70 °FClear.8 mph53%30.15 "HgN/A
3:30 PM70 °FScattered clouds.7 mph50%30.15 "HgN/A
3:00 PM68 °FPartly sunny.9 mph53%30.15 "HgN/A
2:30 PM66 °FPartly sunny.8 mph56%30.15 "HgN/A
2:00 PM68 °FBroken clouds.9 mph53%30.15 "HgN/A
1:30 PM66 °FScattered clouds.6 mph52%30.15 "HgN/A
1:00 PM66 °FScattered clouds.9 mph60%30.15 "HgN/A
12:30 PM64 °FScattered clouds.7 mph60%30.15 "HgN/A
12:00 PM64 °FPassing clouds.5 mph73%30.15 "HgN/A
11:30 AM64 °FPassing clouds.5 mph78%30.18 "HgN/A
11:00 AM63 °FClear.5 mph77%30.18 "HgN/A
10:30 AM61 °FClear.3 mph83%30.18 "HgN/A
10:00 AM59 °FClear.2 mph88%30.18 "HgN/A
9:30 AM55 °FClear.2 mph94%30.18 "HgN/A
9:00 AM55 °FClear.1 mph88%30.18 "HgN/A
8:30 AM54 °FClear.1 mph88%30.15 "HgN/A
8:00 AM52 °FClear.1 mph94%30.15 "HgN/A
7:30 AM48 °FClear.No wind100%30.15 "HgN/A
7:00 AM48 °FClear.No wind100%30.15 "HgN/A
6:30 AM50 °FClear.2 mph94%30.15 "HgN/A
6:00 AM50 °FClear.3 mph94%30.15 "HgN/A
5:30 AM48 °FClear.3 mph100%30.15 "HgN/A
5:00 AM48 °FClear.2 mph94%30.15 "HgN/A
4:30 AM50 °FClear.No wind94%30.15 "HgN/A
4:00 AM48 °FClear.1 mph94%30.15 "HgN/A
3:30 AM50 °FClear.1 mph88%30.15 "HgN/A
3:00 AM50 °FClear.2 mph94%30.15 "HgN/A
2:30 AM52 °FClear.2 mph88%30.15 "HgN/A
2:00 AM50 °FClear.2 mph94%30.15 "HgN/A
1:30 AM52 °FClear.3 mph88%30.15 "HgN/A
1:00 AM54 °FClear.2 mph82%30.15 "HgN/A
12:30 AM54 °FClear.2 mph88%30.15 "HgN/A
12:00 AM54 °FClear.2 mph88%30.15 "HgN/A
11:30 PM
Sep 1
55 °FClear.3 mph82%30.18 "HgN/A
11:00 PM54 °FClear.No wind88%30.18 "HgN/A
10:30 PM55 °FClear.1 mph88%30.18 "HgN/A
10:00 PM57 °FClear.3 mph82%30.18 "HgN/A
Weather by CustomWeather, © 2014

See weather overviewHow to use our weather pages